Weather History for Taba International, Egypt

Change the Weather History Date:

Wednesday, October 16, 2013

  Actual Average Record
Temperature  
Mean Temperature 68 °F -  
Max Temperature 80 °F - - ()
Min Temperature 55 °F - - ()
Cooling Degree Days 2    
Growing Degree Days 18 (Base 50)    
Moisture  
Dew Point 46 °F    
Average Humidity 48    
Maximum Humidity 88    
Minimum Humidity 23    
Precipitation  
Precipitation 0.00 in - - ()
Sea Level Pressure  
Sea Level Pressure 30.03 in    
Wind  
Wind Speed 2 mph ()    
Max Wind Speed 12 mph    
Max Gust Speed -    
T = Trace of Precipitation, MM = Missing Value Source: Averaged Metar Reports

Daily Weather History Graph

Daily Weather History Graph

Search for Another Location

Airport:

Trip Planner

Search our weather history database for the weather conditions in past years. The results will help you decide how hot, cold, wet, or windy it might be!

Date:

Astronomy

Oct. 16, 2013 Rise Set
Actual Time 5:43 AM EET 5:09 PM EET
Civil Twilight 5:18 AM EET 5:33 PM EET
Nautical Twilight 4:51 AM EET 6:01 PM EET
Astronomical Twilight 4:23 AM EET 6:28 PM EET
Moon 3:28 PM EET (10/16) 2:59 AM EET (10/16)
Length of Visible Light 12h 14m
Length of Day
11h 26m
Waxing Gibbous, 92% of the Moon is Illuminated
Oct 16
Waxing Gibbous
Oct 19
Full
Oct 27
Last Quarter
Nov 3
New
Nov 10
First Quarter

Hourly Weather History & Observations

Time (EET) Temp. Dew Point Humidity Pressure Visibility Wind Dir Wind Speed Gust Speed Precip Events Conditions
12:20 AM 60.8 °F 39.2 °F 45% 30.06 in - Calm Calm - N/A   Clear
3:00 AM 59.0 °F 44.6 °F 59% 30.06 in - Calm Calm - N/A   Clear
4:00 AM 57.2 °F 46.4 °F 67% 30.06 in - Calm Calm - N/A   Clear
5:00 AM 57.2 °F 46.4 °F 67% 30.06 in - Calm Calm - N/A   Clear
6:00 AM 55.4 °F 46.4 °F 72% 30.06 in - Calm Calm - N/A   Clear
7:00 AM 57.2 °F 46.4 °F 67% 30.06 in - Calm Calm - N/A   Clear
8:00 AM 66.2 °F 48.2 °F 52% 30.06 in - NW 3.5 mph - N/A   Clear
9:00 AM 69.8 °F 46.4 °F 43% 30.06 in - NNW 5.8 mph - N/A   Clear
9:10 AM 69.8 °F 46.4 °F 43% 30.06 in - NNW 5.8 mph - N/A   Clear
10:00 AM 73.4 °F 44.6 °F 36% 30.06 in - NNW 1.2 mph - N/A   Clear
11:00 AM 75.2 °F 42.8 °F 31% 30.04 in - Variable 3.5 mph - N/A   Clear
12:00 PM 77.0 °F 42.8 °F 29% 30.01 in - Variable 3.5 mph - N/A   Clear
1:00 PM 77.0 °F 42.8 °F 29% 30.01 in - Variable 3.5 mph - N/A   Clear
2:00 PM 78.8 °F 41.0 °F 26% 29.98 in - NW 3.5 mph - N/A   Clear
3:00 PM 80.6 °F 39.2 °F 23% 29.98 in - Calm Calm - N/A   Clear
4:00 PM 80.6 °F 39.2 °F 23% 29.98 in - Calm Calm - N/A   Clear
5:00 PM 78.8 °F 39.2 °F 24% 29.95 in - NNW 5.8 mph - N/A   Clear
6:00 PM 75.2 °F 41.0 °F 29% 29.98 in - NNW 2.3 mph - N/A   Clear
6:50 PM 73.4 °F 48.2 °F 41% 30.01 in - NW 11.5 mph - N/A   Clear
8:00 PM 68.0 °F 57.2 °F 68% 30.01 in - WNW 9.2 mph - N/A   Clear
9:00 PM 66.2 °F 57.2 °F 73% 30.01 in - West 3.5 mph - N/A   Clear
10:00 PM 64.4 °F 57.2 °F 77% 30.01 in - WNW 4.6 mph - N/A   Clear
11:00 PM 60.8 °F 57.2 °F 88% 30.01 in - WNW 2.3 mph - N/A   Clear